BCS4127 LOWL-EDDP

Flight info

Callsign BCS4127
Flight time 0h 48m
Altitude 30000
Route LIDSI DCT LAMSI L604 MOOCE/N0453F240 L604 ANELA M726 LASGA T953 VOCIM T954 GOXLI GOXLI1V
Aircraft B77L/H-SDE1E2E3FGHIJ2J3J4J5M1RWXY/LB1D1

Departure

Time 2026-05-04 18:37
Airport Linz-Hörsching Airport (LOWL)

Arrival

Time 2026-05-04 19:25
Airport Leipzig/Halle Airport (EDDP)
Time Latitude Longitude Altitude Speed Heading
2026-05-04 18:07 48.23829 14.19445 975 ft 0 kts 308°
2026-05-04 18:32 48.23831 14.19441 974 ft 0 kts 308°
2026-05-04 18:32 48.23840 14.19416 974 ft 4 kts 284°
2026-05-04 18:32 48.23828 14.19379 975 ft 3 kts 205°
2026-05-04 18:32 48.23794 14.19385 975 ft 6 kts 150°
2026-05-04 18:33 48.23770 14.19452 975 ft 9 kts 97°
2026-05-04 18:33 48.23768 14.19554 973 ft 10 kts 109°
2026-05-04 18:33 48.23715 14.19622 973 ft 10 kts 156°
2026-05-04 18:33 48.23640 14.19668 973 ft 12 kts 157°
2026-05-04 18:34 48.23562 14.19716 973 ft 13 kts 161°
2026-05-04 18:34 48.23469 14.19768 973 ft 14 kts 159°
2026-05-04 18:34 48.23385 14.19840 973 ft 13 kts 131°
2026-05-04 18:34 48.23362 14.19975 970 ft 14 kts 84°
2026-05-04 18:35 48.23373 14.20168 970 ft 19 kts 86°
2026-05-04 18:35 48.23379 14.20368 966 ft 19 kts 87°
2026-05-04 18:35 48.23388 14.20517 964 ft 10 kts 74°
2026-05-04 18:35 48.23404 14.20606 963 ft 8 kts 106°
2026-05-04 18:36 48.23379 14.20591 962 ft 6 kts 261°
2026-05-04 18:36 48.23376 14.20533 964 ft 7 kts 265°
2026-05-04 18:36 48.23364 14.20073 970 ft 86 kts 268°
2026-05-04 18:36 48.23318 14.18765 977 ft 163 kts 266°
2026-05-04 18:37 48.23248 14.16877 1426 ft 191 kts 266°
2026-05-04 18:37 48.23192 14.14856 2353 ft 200 kts 268°
2026-05-04 18:37 48.23160 14.12782 3142 ft 208 kts 267°
2026-05-04 18:37 48.23066 14.10607 3911 ft 217 kts 266°
2026-05-04 18:38 48.22975 14.08325 4684 ft 227 kts 265°
2026-05-04 18:38 48.23120 14.05923 5349 ft 244 kts 292°
2026-05-04 18:38 48.24155 14.03867 6020 ft 261 kts 320°
2026-05-04 18:38 48.25630 14.02178 6773 ft 277 kts 323°
2026-05-04 18:39 48.27209 14.00445 7706 ft 285 kts 322°
2026-05-04 18:39 48.28814 13.98687 8796 ft 288 kts 322°
2026-05-04 18:39 48.30426 13.96921 9840 ft 290 kts 321°
2026-05-04 18:39 48.32062 13.95125 10684 ft 300 kts 321°
2026-05-04 18:40 48.33783 13.93231 11357 ft 316 kts 321°
2026-05-04 18:40 48.35599 13.91233 12054 ft 332 kts 321°
2026-05-04 18:40 48.37515 13.89124 12775 ft 347 kts 321°
2026-05-04 18:40 48.39502 13.86933 13496 ft 361 kts 321°
2026-05-04 18:41 48.41539 13.84688 14388 ft 369 kts 321°
2026-05-04 18:41 48.43613 13.82401 15346 ft 375 kts 321°
2026-05-04 18:41 48.45728 13.80067 15845 ft 381 kts 321°
2026-05-04 18:41 48.47864 13.77708 15920 ft 381 kts 321°
2026-05-04 18:42 48.49994 13.75354 15934 ft 380 kts 321°
2026-05-04 18:42 48.52125 13.72996 15932 ft 380 kts 321°
2026-05-04 18:42 48.54258 13.70635 15939 ft 381 kts 321°
2026-05-04 18:42 48.56392 13.68269 15938 ft 381 kts 321°
2026-05-04 18:43 48.58522 13.65906 15935 ft 380 kts 321°
2026-05-04 18:43 48.60647 13.63545 15939 ft 381 kts 321°
2026-05-04 18:43 48.62795 13.61157 15940 ft 381 kts 321°
2026-05-04 18:43 48.64949 13.58723 15945 ft 381 kts 318°
2026-05-04 18:44 48.66917 13.55966 15949 ft 380 kts 313°
2026-05-04 18:44 48.68194 13.54061 15943 ft 379 kts 313°
2026-05-04 18:44 48.70717 13.50277 15943 ft 379 kts 313°
2026-05-04 18:44 48.72615 13.47427 15944 ft 380 kts 313°
2026-05-04 18:45 48.74503 13.44589 15942 ft 379 kts 313°
2026-05-04 18:45 48.76398 13.41738 15944 ft 380 kts 313°
2026-05-04 18:45 48.78306 13.38866 15949 ft 380 kts 313°
2026-05-04 18:45 48.80186 13.36030 15978 ft 389 kts 312°
2026-05-04 18:46 48.82126 13.33100 16836 ft 396 kts 312°
2026-05-04 18:46 48.84035 13.30220 18195 ft 388 kts 312°
2026-05-04 18:46 48.85942 13.27336 19306 ft 388 kts 312°
2026-05-04 18:46 48.87883 13.24395 20122 ft 395 kts 312°
2026-05-04 18:47 48.89841 13.21423 20927 ft 402 kts 312°
2026-05-04 18:47 48.91818 13.18419 21779 ft 406 kts 312°
2026-05-04 18:47 48.93824 13.15368 22644 ft 410 kts 313°
2026-05-04 18:47 48.95846 13.12290 23463 ft 414 kts 313°
2026-05-04 18:48 48.97906 13.09148 24248 ft 419 kts 313°
2026-05-04 18:48 48.99994 13.05960 24998 ft 424 kts 313°
2026-05-04 18:48 49.02113 13.02721 25736 ft 429 kts 313°
2026-05-04 18:48 49.04240 12.99466 26463 ft 434 kts 313°
2026-05-04 18:49 49.06382 12.96183 27207 ft 438 kts 312°
2026-05-04 18:49 49.08565 12.92833 27952 ft 443 kts 312°
2026-05-04 18:49 49.10762 12.89457 28681 ft 448 kts 312°
2026-05-04 18:49 49.12984 12.86038 29413 ft 452 kts 312°
2026-05-04 18:50 49.15206 12.82616 29918 ft 454 kts 312°
2026-05-04 18:50 49.19630 12.75791 29941 ft 448 kts 312°
2026-05-04 18:51 49.24009 12.69016 29936 ft 447 kts 312°
2026-05-04 18:51 49.28404 12.62196 29938 ft 447 kts 312°
2026-05-04 18:52 49.32569 12.55153 29943 ft 444 kts 303°
2026-05-04 18:52 49.35306 12.46762 29942 ft 439 kts 289°
2026-05-04 18:53 49.37388 12.38012 29941 ft 439 kts 288°
2026-05-04 18:53 49.39458 12.29223 29940 ft 437 kts 288°
2026-05-04 18:54 49.41512 12.20462 29940 ft 438 kts 288°
2026-05-04 18:54 49.43571 12.11637 29948 ft 437 kts 288°
2026-05-04 18:55 49.45598 12.02912 29953 ft 437 kts 288°
2026-05-04 18:55 49.48658 11.89672 29946 ft 436 kts 288°
2026-05-04 18:56 49.50671 11.80909 29946 ft 435 kts 288°
2026-05-04 18:56 49.52679 11.72130 29947 ft 436 kts 288°
2026-05-04 18:57 49.54682 11.63342 29949 ft 436 kts 287°
2026-05-04 18:57 49.57137 11.54823 29941 ft 440 kts 300°
2026-05-04 18:58 49.61086 11.47564 29945 ft 445 kts 311°
2026-05-04 18:58 49.65420 11.40706 29947 ft 446 kts 311°
2026-05-04 18:59 49.69766 11.33803 29953 ft 446 kts 310°
2026-05-04 18:59 49.74428 11.27437 29955 ft 451 kts 323°
2026-05-04 19:00 49.80187 11.23476 29955 ft 459 kts 342°
2026-05-04 19:00 49.86600 11.22454 29961 ft 467 kts 357°
2026-05-04 19:01 49.93119 11.22514 29959 ft 466 kts 357°
2026-05-04 19:01 49.99634 11.23178 29949 ft 470 kts
2026-05-04 19:02 50.02813 11.24584 29659 ft 476 kts 18°
2026-05-04 19:02 50.05835 11.26796 29316 ft 478 kts 28°
2026-05-04 19:02 50.08656 11.29575 28995 ft 478 kts 31°
2026-05-04 19:02 50.11457 11.32451 28641 ft 480 kts 31°
2026-05-04 19:03 50.14279 11.35358 28232 ft 482 kts 31°
2026-05-04 19:03 50.17078 11.38247 27828 ft 481 kts 31°
2026-05-04 19:03 50.19876 11.41138 27426 ft 482 kts 31°
2026-05-04 19:03 50.22682 11.44042 27002 ft 483 kts 31°
2026-05-04 19:04 50.25487 11.46949 26540 ft 480 kts 32°
2026-05-04 19:04 50.28255 11.49823 26091 ft 475 kts 31°
2026-05-04 19:04 50.30991 11.52666 25643 ft 471 kts 32°
2026-05-04 19:04 50.33697 11.55484 25201 ft 467 kts 32°
2026-05-04 19:05 50.36388 11.58288 24752 ft 465 kts 32°
2026-05-04 19:05 50.39064 11.61081 24301 ft 463 kts 32°
2026-05-04 19:05 50.41732 11.63869 23856 ft 460 kts 32°
2026-05-04 19:05 50.44378 11.66639 23407 ft 457 kts 33°
2026-05-04 19:06 50.47006 11.69393 22970 ft 454 kts 33°
2026-05-04 19:06 50.49615 11.72131 22527 ft 451 kts 33°
2026-05-04 19:06 50.52209 11.74857 22092 ft 448 kts 33°
2026-05-04 19:06 50.54792 11.77575 21668 ft 447 kts 33°
2026-05-04 19:07 50.57363 11.80284 21240 ft 444 kts 33°
2026-05-04 19:07 50.59914 11.82975 20807 ft 440 kts 33°
2026-05-04 19:07 50.62439 11.85643 20378 ft 436 kts 33°
2026-05-04 19:07 50.64939 11.88287 20014 ft 432 kts 33°
2026-05-04 19:08 50.67427 11.90923 19951 ft 433 kts 33°
2026-05-04 19:08 50.69925 11.93572 19952 ft 433 kts 33°
2026-05-04 19:08 50.72423 11.96224 19952 ft 434 kts 33°
2026-05-04 19:08 50.74923 11.98882 19949 ft 434 kts 33°
2026-05-04 19:09 50.77430 12.01552 19945 ft 434 kts 33°
2026-05-04 19:09 50.79947 12.04234 19953 ft 434 kts 33°
2026-05-04 19:09 50.82453 12.06910 19943 ft 434 kts 33°
2026-05-04 19:09 50.84960 12.09589 19948 ft 433 kts 33°
2026-05-04 19:10 50.87432 12.12235 19801 ft 427 kts 33°
2026-05-04 19:10 50.89871 12.14849 19233 ft 425 kts 33°
2026-05-04 19:10 50.92318 12.17474 18525 ft 426 kts 33°
2026-05-04 19:10 50.94761 12.20099 17949 ft 423 kts 33°
2026-05-04 19:11 50.97184 12.22706 17485 ft 418 kts 33°
2026-05-04 19:11 50.99581 12.25288 17020 ft 413 kts 33°
2026-05-04 19:11 51.01939 12.27831 16522 ft 410 kts 33°
2026-05-04 19:11 51.04284 12.30364 15968 ft 407 kts 33°
2026-05-04 19:12 51.06613 12.32882 15456 ft 405 kts 33°
2026-05-04 19:12 51.11246 12.37901 14421 ft 399 kts 33°
2026-05-04 19:12 51.13524 12.40373 13929 ft 395 kts 33°
2026-05-04 19:13 51.15788 12.42833 13409 ft 392 kts 33°
2026-05-04 19:13 51.18031 12.45273 12897 ft 389 kts 33°
2026-05-04 19:13 51.20265 12.47712 12394 ft 386 kts 33°
2026-05-04 19:13 51.22481 12.50141 11903 ft 384 kts 33°
2026-05-04 19:14 51.24667 12.52545 11635 ft 372 kts 33°
2026-05-04 19:14 51.26761 12.54858 11411 ft 357 kts 33°
2026-05-04 19:14 51.28763 12.57079 11265 ft 342 kts 33°
2026-05-04 19:14 51.30669 12.59200 11154 ft 327 kts 33°
2026-05-04 19:15 51.32483 12.61228 11117 ft 313 kts 33°
2026-05-04 19:15 51.34247 12.63206 10873 ft 308 kts 33°
2026-05-04 19:15 51.35995 12.65174 10499 ft 307 kts 34°
2026-05-04 19:15 51.37744 12.67148 10145 ft 306 kts 34°
2026-05-04 19:16 51.39461 12.69163 9807 ft 305 kts 42°
2026-05-04 19:16 51.40705 12.71884 9402 ft 306 kts 68°
2026-05-04 19:16 51.41115 12.75164 9024 ft 301 kts 94°
2026-05-04 19:16 51.40627 12.78350 8660 ft 294 kts 120°
2026-05-04 19:17 51.39362 12.80823 8260 ft 286 kts 147°
2026-05-04 19:17 51.37596 12.82102 7885 ft 278 kts 173°
2026-05-04 19:17 51.35710 12.81964 7498 ft 271 kts 200°
2026-05-04 19:17 51.34114 12.80470 7093 ft 267 kts 227°
2026-05-04 19:18 51.33161 12.77976 6696 ft 266 kts 254°
2026-05-04 19:18 51.33067 12.75057 6347 ft 266 kts 281°
2026-05-04 19:18 51.33859 12.72392 5974 ft 269 kts 309°
2026-05-04 19:18 51.35366 12.70576 5604 ft 272 kts 332°
2026-05-04 19:19 51.37085 12.69321 5344 ft 269 kts 335°
2026-05-04 19:19 51.38789 12.68079 5020 ft 267 kts 328°
2026-05-04 19:19 51.40116 12.66049 4647 ft 264 kts 301°
2026-05-04 19:19 51.40968 12.63461 4340 ft 263 kts 295°
2026-05-04 19:20 51.41746 12.60836 4118 ft 258 kts 295°
2026-05-04 19:20 51.42369 12.58265 4049 ft 236 kts 283°
2026-05-04 19:20 51.42618 12.55776 3772 ft 219 kts 276°
2026-05-04 19:20 51.42675 12.53452 3574 ft 200 kts 270°
2026-05-04 19:21 51.42610 12.51332 3399 ft 181 kts 266°
2026-05-04 19:21 51.42505 12.49436 3129 ft 161 kts 266°
2026-05-04 19:21 51.42410 12.47704 3016 ft 152 kts 266°
2026-05-04 19:21 51.42333 12.46039 2920 ft 150 kts 267°
2026-05-04 19:22 51.42264 12.44433 2708 ft 141 kts 268°
2026-05-04 19:22 51.42196 12.42815 2485 ft 146 kts 267°
2026-05-04 19:22 51.42120 12.41214 2315 ft 143 kts 266°
2026-05-04 19:22 51.42040 12.39611 2171 ft 146 kts 267°
2026-05-04 19:23 51.41962 12.37976 1991 ft 148 kts 267°
2026-05-04 19:23 51.41891 12.36341 1806 ft 147 kts 268°
2026-05-04 19:23 51.41822 12.34701 1575 ft 147 kts 266°
2026-05-04 19:23 51.41750 12.33074 1369 ft 145 kts 266°
2026-05-04 19:24 51.41671 12.31473 1171 ft 144 kts 265°
2026-05-04 19:24 51.41596 12.29875 995 ft 144 kts 266°
2026-05-04 19:24 51.41530 12.28272 831 ft 144 kts 266°
2026-05-04 19:24 51.41450 12.26661 645 ft 145 kts 265°
2026-05-04 19:25 51.41376 12.25054 479 ft 143 kts 266°
2026-05-04 19:25 51.41309 12.23629 467 ft 111 kts 265°
2026-05-04 19:25 51.41263 12.22702 470 ft 68 kts 264°
2026-05-04 19:25 51.41240 12.22164 459 ft 33 kts 265°
2026-05-04 19:26 51.41206 12.21882 453 ft 25 kts 248°
2026-05-04 19:26 51.41143 12.21709 452 ft 12 kts 232°
2026-05-04 19:26 51.41134 12.21690 452 ft 0 kts 232°
2026-05-04 19:26 51.41128 12.21679 451 ft 2 kts 232°
2026-05-04 19:27 51.41112 12.21649 451 ft 4 kts 215°
2026-05-04 19:27 51.41087 12.21645 451 ft 4 kts 166°
2026-05-04 19:27 51.41061 12.21670 453 ft 5 kts 125°
2026-05-04 19:27 51.41054 12.21729 454 ft 4 kts 92°
2026-05-04 19:28 51.41053 12.21768 455 ft 2 kts 90°
2026-05-04 19:28 51.41053 12.21780 455 ft 0 kts 87°
2026-05-04 19:29 51.41053 12.21786 455 ft 3 kts 87°
2026-05-04 19:30 51.41055 12.21833 456 ft 3 kts 86°
2026-05-04 19:30 51.41056 12.21847 457 ft 0 kts 86°
2026-05-04 19:31 51.41056 12.21860 457 ft 5 kts 86°
2026-05-04 19:32 51.41059 12.21928 460 ft 4 kts 86°
2026-05-04 19:32 51.41061 12.21993 461 ft 12 kts 86°
2026-05-04 19:32 51.41067 12.22121 463 ft 11 kts 86°
2026-05-04 19:32 51.41065 12.22261 466 ft 11 kts 112°
2026-05-04 19:33 51.41011 12.22330 470 ft 10 kts 141°
2026-05-04 19:33 51.40995 12.22452 473 ft 14 kts 87°
2026-05-04 19:33 51.41002 12.22639 476 ft 17 kts 86°
2026-05-04 19:33 51.41010 12.22824 477 ft 16 kts 85°
2026-05-04 19:34 51.41023 12.23036 476 ft 21 kts 85°
2026-05-04 19:34 51.41036 12.23287 471 ft 23 kts 85°
2026-05-04 19:34 51.41048 12.23546 466 ft 23 kts 85°
2026-05-04 19:34 51.41061 12.23821 464 ft 24 kts 85°
2026-05-04 19:35 51.41074 12.24098 459 ft 24 kts 85°
2026-05-04 19:35 51.41087 12.24367 456 ft 19 kts 85°
2026-05-04 19:35 51.41093 12.24547 455 ft 12 kts 86°
2026-05-04 19:35 51.41050 12.24662 452 ft 13 kts 166°
2026-05-04 19:36 51.40957 12.24676 449 ft 14 kts 181°
2026-05-04 19:36 51.40877 12.24705 446 ft 10 kts 108°
2026-05-04 19:36 51.40881 12.24825 446 ft 10 kts 85°
2026-05-04 19:36 51.40882 12.24843 446 ft 0 kts 85°